Location: White Plains
(41.0340°N, 73.7629°W)
Time: 05:30:58
(UTC-05:00)

ISS - Visible Passes

Search period start: 21 February 2020 00:00
Search period end: 02 March 2020 00:00
Orbit: 415 x 422 km, 51.6° (Epoch: 22 February)

Date Brightness Start Highest point End Pass type
(mag) Time Alt. Az. Time Alt. Az. Time Alt. Az.
21 Feb -3.1 06:06:03 10° SW 06:09:22 59° SE 06:12:42 10° ENE visible
22 Feb -2.1 05:18:53 11° SSW 05:21:50 33° SE 05:24:54 10° ENE visible
23 Feb -1.5 04:33:53 19° SE 04:34:21 20° SE 04:36:51 10° E visible
23 Feb -3.4 06:07:37 10° WSW 06:10:54 49° NNW 06:14:12 10° NE visible
24 Feb -3.9 05:21:39 29° WSW 05:23:14 81° NW 05:26:38 10° NE visible
25 Feb -2.8 04:36:16 47° E 04:36:16 47° E 04:38:56 10° ENE visible
26 Feb -0.3 03:50:44 12° ENE 03:50:44 12° ENE 03:51:06 10° ENE visible
26 Feb -2.8 05:23:42 26° WNW 05:24:49 33° NNW 05:27:56 10° NE visible
27 Feb -2.5 04:38:04 35° NNE 04:38:04 35° NNE 04:40:22 10° NE visible
28 Feb -0.5 03:52:21 13° NE 03:52:21 13° NE 03:52:44 10° NE visible
28 Feb -1.9 05:25:18 16° NW 05:26:34 19° NNW 05:29:06 10° NNE visible
29 Feb -1.9 04:39:30 22° N 04:39:30 22° N 04:41:32 10° NE visible
01 Mar -0.5 03:53:39 12° NE 03:53:39 12° NE 03:53:58 10° NE visible
01 Mar -1.4 05:26:36 11° NW 05:28:25 14° N 05:30:22 10° NNE visible
